Regional Weather Roundup
Issued by NWS Upton, NY

Home | Current Version | Previous Version | Text Only | Print | Product List | Glossary On
Versions: 1 2 3 4 5 6 7 8 9 10 11 12 13 14 15 16 17 18 19 20 21 22 23 24 25 26 27 28 29 30 31 32 33 34 35 36 37 38 39 40 41 42 43 44 45 46 47 48 49 50
000
ASUS41 KOKX 031305
RWROKX

REGIONAL WEATHER ROUNDUP
NATIONAL WEATHER SERVICE NEW YORK NY
800 AM EST TUE MAR 03 2015

NOTE: "FAIR" INDICATES FEW OR NO CLOUDS BELOW 12,000 FEET WITH NO
SIGNIFICANT WEATHER AND/OR OBSTRUCTIONS TO VISIBILITY.

NYZ071-072-176-178-NJZ106-104-031400-
NEW YORK CITY METRO AREA


CITY           SKY/WX    TMP DP  RH WIND       PRES   REMARKS
CENTRAL PARK   MOSUNNY   25   8  48 CALM      30.45S
LAGUARDIA APRT PTSUNNY   26   9  48 W3        30.44S
KENNEDY INTL   PTSUNNY   25  10  53 CALM      30.46R
NEWARK/LIBERTY PTSUNNY   24   9  52 N3        30.45S
BRNX BOT. GARD   N/A    N/A N/A N/A SW3       30.44F
TETERBORO      MOSUNNY   21   8  57 CALM      30.45S
$$

NYZ177-179-078>081-031400-
LONG ISLAND NEW YORK

CITY           SKY/WX    TMP DP  RH WIND       PRES   REMARKS
FARMINGDALE    SUNNY     23  11  60 CALM      30.45R
ISLIP          PTSUNNY   18  14  84 NW5       30.42R WCI  11
SHIRLEY        SUNNY     23  10  57 NW3       30.44S
WESTHAMPTON    SUNNY     22  13  68 CALM      30.45R
MONTAUK POINT  NOT AVBL
$$

NYZ052-065-067-031400-
HUDSON VALLEY

CITY           SKY/WX    TMP DP  RH WIND       PRES   REMARKS
WHITE PLAINS   SUNNY     19   8  62 NW3       30.40S
NEWBURGH       SUNNY     16   9  73 W7        30.41R WCI   6
MONTGOMERY     MOSUNNY    8   1  73 CALM      30.40R
POUGHKEEPSIE   MOSUNNY    8   2  76 CALM      30.43S
ALBANY         PTSUNNY   16   5  62 E3        30.41S
$$

NJZ001-105-106-008-010-013-015-019>022-104-031400-
NEW JERSEY

CITY           SKY/WX    TMP DP  RH WIND       PRES   REMARKS
NEWARK/LIBERTY PTSUNNY   24   9  52 N3        30.45S
TETERBORO      MOSUNNY   21   8  57 CALM      30.45S
CALDWELL       MOSUNNY   19   9  65 CALM      30.45R
MORRISTOWN     MOSUNNY   16  10  79 CALM      30.45R
SOMERVILLE     PTSUNNY   18   7  62 CALM      30.44R
SUSSEX         MIX PCPN  11   4  73 CALM      30.41R
ANDOVER          N/A     13   7  77 CALM      30.41R
TRENTON        PTSUNNY   24   9  52 MISG      30.44R
MILLVILLE      PTSUNNY   26  11  52 NE9       30.45R WCI  17
ATLANTIC CITY  PTSUNNY   25  13  60 N6        30.46R WCI  18
WRIGHTSTOWN    PTSUNNY   25  10  54 VRB2      30.43R
TOMS RIVER     PTSUNNY   25  10  54 NW5       30.46R WCI  19
BELMAR         PTSUNNY   23   9  54 NW6       30.44R WCI  16
$$

PAZ047>061-062-071-031400-
EASTERN PENNSYLVANIA

CITY           SKY/WX    TMP DP  RH WIND       PRES   REMARKS
PHILADELPHIA   CLOUDY    27  10  49 N3        30.48R
ALLENTOWN      PTSUNNY   18   9  68 CALM      30.43R
SCRANTON       PTSUNNY   15   6  67 CALM      30.37R
$$

CTZ002-004>006-009-010-012-RIZ004-006-007-MAZ004-011-015-031400-
SOUTHERN NEW ENGLAND
 IN CT

CITY           SKY/WX    TMP DP  RH WIND       PRES   REMARKS
BRADLEY INTL   MOSUNNY   20   6  55 CALM      30.41R
HARTFORD       SUNNY     15   7  70 SE7       30.44R WCI   5
DANBURY        SUNNY      8   3  80 CALM      30.41S
WTRBRY/OXFORD  PTSUNNY   12  -2  52 N3        30.39R
BRIDGEPORT     SUNNY     17   9  70 CALM      30.44R
MERIDEN        SUNNY     15   6  67 CALM      30.43S
NEW HAVEN      MOSUNNY   22   8  55 VRB5      30.44R WCI  16
CHESTER        FAIR      21   9  58 N3        30.40S
GROTON         SUNNY     19   7  59 N5        30.44R WCI  12
WILLIMANTIC    SUNNY      9   2  73 NE3       30.43R

 IN RI

CITY           SKY/WX    TMP DP  RH WIND       PRES   REMARKS
PROVIDENCE     MOSUNNY   18   6  59 W7        30.43R WCI   9
BLOCK ISLAND   SUNNY     25  10  54 NW6       30.42R WCI  18
WESTERLY       SUNNY     21   7  54 N6        30.43R WCI  13

 IN MA

CITY           SKY/WX    TMP DP  RH WIND       PRES   REMARKS
BOSTON         MOSUNNY   22   3  44 NW12      30.40R WCI  10
WORCESTER      SUNNY     16   2  54 W3        30.34R
WESTFIELD      SUNNY     10   3  73 CALM      30.40S
PROVINCETOWN   SUNNY     25   7  46 NW16G23   30.39R WCI  12
NANTUCKET      SUNNY     26   8  46 NW12      30.40R WCI  16
$$

ANZ330-335-338-340-345-350-353-355-031400-
COASTAL MARINE OBSERVATIONS


STATION/POSITION TIME  SKY/WX   TEMP    WIND        PRES    VSBY  WAVE
                                AIR SEA DIR/SP/G                  HT/PER
                 (UTC)          (F)     (DEG/KT/KT) (MB)    (MI)  (FT/S)
NY HARB ENTRANCE 1300            28 38   10/  4/  6 1030.8          1/ 8
4S FIRE IS       NOT AVBL
20S FIRE ISLAND  1200               36              1031.1          2/ 4
23SW MTP         1300                                 N/A           2/ 5
HUDSON CANYON    NOT AVBL
EXECUTION ROCKS  NOT AVBL
WESTERN LI SOUND NOT AVBL
CENTRAL LI SOUND NOT AVBL
EASTERN LI SOUND NOT AVBL
ROBBINS REEF     1300                               1029.8
$$


>>>>>>>>>>>>>>>>>>>>>>>>>>>> KEY <<<<<<<<<<<<<<<<<<<<<<<<<<<
>                                                          <
>     SKY/WX - SKY CONDITION/PRESENT WEATHER               <
>     TMP    - TEMPERATURE IN FAHRENHEIT                   <
>     DP     - DEWPOINT IN FAHRENHEIT                      <
>     RH     - RELATIVE HUMIDITY IN PERCENT                <
>     WIND   - DIRECTION AND SPEED IN MPH                  <
>     PRES   - MEAN SEA LEVEL PRESSURE IN INCHES OF HG     <
>     WCI    - WIND CHILL INDEX                            <
>     VSB    - VISIBILITY IN MILES                         <
>     HX     - HEAT INDEX                                  <
>     TC     - TEMPERATURE IN CELSIUS                      <
>     VRB    - VARIABLE WIND DIRECTION                     <
>                                                          <
>>>>>>>>>>>>>>>>>>>>>>>>>>>> KEY <<<<<<<<<<<<<<<<<<<<<<<<<<<




USA.gov is the U.S. government's official web portal to all federal, state and local government web resources and services.